Simultaneous Nadir Overpasses (SNOs) Predictions

Prediction of SNOs between NOAA-21 and METOP-C Satellite Orbit:

Table of predicted SNOs for the next 14.0 days since TLE Epoch: 9/6/2023
Index Date (NOAA-21) Time (NOAA-21) Lat,Lon (NOAA-21) SZA (NOAA-21 ) Date (METOP-C) Time (METOP-C) Lat,Lon (METOP-C) SZA (METOP-C ) Distance(km) Time Diff (sec)
1 09/19/2023 07:41:30 73.53, 54.40 72.10 09/19/2023 07:42:35 73.48, 57.43 71.93 96.06 65
2 09/19/2023 08:32:11 -73.38,-137.94 108.05 09/19/2023 08:33:19 -73.34,-135.54 108.19 76.46 68
3 09/19/2023 09:22:53 73.19, 29.80 71.75 09/19/2023 09:24:03 73.15, 31.37 71.65 50.58 70
4 09/19/2023 10:13:35 -73.09,-162.66 108.35 09/19/2023 10:14:46 -73.06,-161.49 108.42 38.07 71
5 09/19/2023 11:04:17 72.89, 5.07 71.46 09/19/2023 11:05:30 72.87, 5.43 71.41 12.08 73
6 09/19/2023 11:54:59 -72.79, 172.60 108.64 09/19/2023 11:56:13 -72.79, 172.58 108.66 0.62 74
7 09/19/2023 12:45:45 72.79, -20.10 71.38 09/19/2023 12:46:53 72.79, -20.07 71.37 1.12 68
8 09/19/2023 13:36:29 -72.79, 147.21 108.61 09/19/2023 13:37:34 -72.81, 147.30 108.61 3.24 65
9 09/19/2023 14:27:14 72.75, -45.38 71.36 09/19/2023 14:28:15 72.77, -45.46 71.37 3.38 61
10 09/19/2023 15:17:58 -72.80, 121.83 108.58 09/19/2023 15:18:55 -72.78, 121.90 108.60 2.99 57
11 09/19/2023 16:08:43 72.75, -70.77 71.39 09/19/2023 16:09:36 72.74, -70.86 71.37 3.35 53
12 09/19/2023 16:59:27 -72.75, 96.55 108.60 09/19/2023 17:00:17 -72.76, 96.51 108.60 1.42 50
13 09/19/2023 17:50:13 72.76, -96.15 71.42 09/19/2023 17:50:57 72.76, -96.15 71.42 0.76 44
14 09/19/2023 18:40:57 -72.76, 71.16 108.57 09/19/2023 18:41:38 -72.78, 71.22 108.55 3.21 41
15 09/19/2023 19:31:43 72.76,-121.53 71.46 09/19/2023 19:32:19 72.74,-121.54 71.43 2.73 36
16 09/19/2023 20:22:27 -72.76, 45.78 108.53 09/19/2023 20:23:00 -72.76, 45.82 108.55 1.66 33
17 09/19/2023 21:13:13 72.77,-146.92 71.49 09/19/2023 21:13:40 72.76,-146.83 71.48 2.96 27
18 09/19/2023 22:03:56 -72.72, 20.50 108.56 09/19/2023 22:04:22 -72.73, 20.43 108.55 2.70 26
19 09/19/2023 22:54:42 72.72,-172.20 71.47 09/19/2023 22:55:02 72.74,-172.22 71.48 1.85 20
20 09/19/2023 23:45:26 -72.72, -4.88 108.52 09/19/2023 23:45:44 -72.70, -4.96 108.54 3.29 18
21 09/20/2023 00:36:12 72.73, 162.42 71.50 09/20/2023 00:36:24 72.71, 162.38 71.48 2.22 12
22 09/20/2023 01:26:56 -72.73, -30.27 108.49 09/20/2023 01:27:05 -72.73, -30.25 108.49 0.56 9
23 09/20/2023 02:17:42 72.73, 137.03 71.53 09/20/2023 02:17:45 72.73, 137.09 71.53 1.94 3



Historial Predications of SNOs between NOAA-21 and METOP-C
